Location: Binningen
(47.7924°N, 8.7261°E)
Time: 04:37:29
(UTC+00:00)

Cosmos 1934 Rocket - Pass Details

Date: 17 May 2021
Orbit: 937 x 1000 km, 83.0° (Epoch: 14 June)

Event Time Altitude Azimuth Distance (km) Brightness Sun altitude
Rises 22:21:20 0° 354° (N) 3,642 8.5 -21.3°
Reaches altitude 10° 22:23:57 10° 0° (N) 2,684 7.4 -21.4°
Maximum altitude 22:29:53 49° 75° (ENE) 1,196 4.4 -21.7°
Enters shadow 22:32:08 34° 128° (SE) 1,505 4.6 -21.8°
